Forside
METAR-TAF:

METAR-TAF

Lufthavne :

Porter County Municipal Airport

Valparaiso, Indiana, USA

Breddekreds: 41-27-11N, længdekreds: 086-59-53W, højde: 234 m

Aktuelle vejr

Denne rapport blev lavet for 1 time og 0 minutter siden, kl. 10:56 UTC
Vind stille
Temperatur 13°C
Fugtighed 88%
Tryk 1019 hPa
Sigt: 16.1 km
skyfri

METAR: KVPZ 121056Z AUTO 00000KT 10SM CLR 13/11 A3010 RMK AO2 SLPNO T01280111 TSNO $

Tid: 06:56 (11:56 UTC)


TAF: fraværende

Vejrobservationer og prognoser fra mere end 4000 lufthavne (METAR og TAF).

De gule og røde prikker repræsenterer de meteorologiske stationer.

Flyt musen over at se navnet på stationen.

Så klik over at se vejr observationer og prognoser.

At skifte det kort: Klik på de grønne knapper med et sort kors for at zoome ind; på den grønne knap med en bindestreg for at zoome ud; eller på de grønne pile for tilstødende kort.


METAR-TAF: